Location: Antoniew
(51.9153°N, 19.0405°E)
Time: 02:41:59
(UTC+01:00)

ISS - Visible Passes

Search period start: 23 January 2019 00:00
Search period end: 02 February 2019 00:00
Orbit: 404 x 411 km, 51.6° (Epoch: 23 January)

Date Brightness Start Highest point End Pass type
(mag) Time Alt. Az. Time Alt. Az. Time Alt. Az.
23 Jan -1.4 18:40:06 10° SSW 18:41:04 15° S 18:41:04 15° S visible
24 Jan -1.8 17:49:38 10° S 17:51:38 15° SE 17:52:03 15° SE visible
24 Jan -0.7 19:24:25 10° WSW 19:24:46 12° SW 19:24:46 12° SW visible
25 Jan -2.6 18:33:16 10° SW 18:35:40 33° S 18:35:40 33° S visible
26 Jan -2.4 17:42:17 10° SSW 17:45:07 27° SSE 17:46:30 20° ESE visible
26 Jan -1.2 19:18:04 10° WSW 19:19:13 20° WSW 19:19:13 20° WSW visible
27 Jan -3.6 18:26:45 10° WSW 18:30:00 59° SSE 18:30:00 59° SSE visible
28 Jan -3.1 17:35:30 10° SW 17:38:40 44° SSE 17:40:44 19° E visible
28 Jan -1.7 19:11:47 10° W 19:13:26 27° W 19:13:26 27° W visible
29 Jan -3.9 18:20:23 10° WSW 18:23:41 79° S 18:24:08 62° ESE visible
30 Jan -3.6 17:29:00 10° WSW 17:32:17 66° SSE 17:34:49 16° E visible
30 Jan -2.2 19:05:28 10° W 19:07:31 35° W 19:07:31 35° W visible
31 Jan -3.9 18:14:02 10° W 18:17:21 88° SSE 18:18:11 47° E visible
31 Jan -0.4 19:50:34 10° W 19:50:54 12° W 19:50:54 12° W visible
01 Feb -3.8 17:22:35 10° W 17:25:53 84° S 17:28:51 13° E visible
01 Feb -2.7 18:59:07 10° W 19:01:34 45° W 19:01:34 45° W visible
